This is the latest recevied weather packets stored in our database for station/object WD8INF-9. If no packets are shown the sender has not sent any weather packets the latest 1 day(s).
| Time | Temp. | Humidity | Pressure | Rain* | Wind** | Luminosity | Snow |
|---|---|---|---|---|---|---|---|
| 1778094063 | 15° C | - | 1011.3 hPa | 0 mm | - | - | - |
| 1778092258 | 16.67° C | - | 1011.3 hPa | 0 mm | - | - | - |
| 1778091057 | 16.67° C | - | 1010.8 hPa | 0 mm | - | - | - |
| 1778089856 | 18.33° C | - | 1011.5 hPa | 0 mm | - | - | - |
| 1778089556 | 18.89° C | - | 1011.4 hPa | 0 mm | - | - | - |
| 1778088354 | 17.22° C | - | 1011.6 hPa | 0 mm | - | - | - |
| 1778087452 | 16.11° C | - | 1011.5 hPa | 0 mm | - | - | - |
| 1778087152 | 17.22° C | - | 1011.2 hPa | 0 mm | - | - | - |
| 1778086251 | 18.33° C | - | 1012 hPa | 0 mm | - | - | - |
| 1778085951 | 17.22° C | - | 1011.8 hPa | 0 mm | - | - | - |
| 1778085050 | 15.56° C | - | 1011.8 hPa | 0 mm | - | - | - |
| 1778084750 | 16.67° C | - | 1011.6 hPa | 0 mm | - | - | - |
| 1778084150 | 18.33° C | - | 1011.6 hPa | 0 mm | - | - | - |
| 1778082948 | 16.67° C | - | 1011.5 hPa | 0 mm | - | - | - |
| 1778081746 | 16.67° C | - | 1011.7 hPa | 0 mm | - | - | - |
| 1778080545 | 16.11° C | - | 1011.4 hPa | 0 mm | - | - | - |
| 1778080245 | 15.56° C | - | 1011 hPa | 0 mm | - | - | - |
| 1778079344 | 15° C | - | 1010.7 hPa | 0 mm | - | - | - |
| 1778079044 | 15° C | - | 1010.8 hPa | 0 mm | - | - | - |
| 1778076641 | 11.67° C | - | 1010.6 hPa | 0 mm | - | - | - |
| 1778076341 | 11.67° C | - | 1010.3 hPa | 0 mm | - | - | - |
| 1778075740 | 11.11° C | - | 1010.4 hPa | 0 mm | - | - | - |
| 1778075140 | 10° C | - | 1010.5 hPa | 0 mm | - | - | - |
| 1778073939 | 9.44° C | - | 1010.4 hPa | 0 mm | - | - | - |
| 1778073038 | 8.89° C | - | 1010.3 hPa | 0 mm | - | - | - |
* Rain since midnight (hover to see other rain measurements)
** Current wind speed in m/s (hover to see current wind gust speed)